sat.trackr.live / text

‹ back to catalog

STARLINK-5701

NORAD 55487 · 2023-015AQ

PAYLOAD ACTIVE UNKNOWN

§ Identity

Operator
Country
US
Launch date
2023-02-02
Launch site
AFETR
Launch vehicle
Mass (kg)
RCS (m²)

Purposes: comms

External: N2YO · Heavens-Above · Gunter

§ Orbital elements

Epoch: 2026-09-20T22:00:03.000096Z

Period
93.01 min
Inclination
43.0044°
Eccentricity
0.0001409
Mean motion
15.48166120 rev/d
Perigee alt
421.1 km
Apogee alt
423.0 km
Semi-major
6,800.2 km
B*
2.1683e-2
RAAN
315.4670°
Arg perigee
267.2353°
Mean anomaly
58.8065°
Rev number
585

§ Raw data

STARLINK-57011 55487U 23015AQ  26263.91670139  .01295277  00000+0  21683-1 0  99982 55487  43.0044 315.4670 0001409 267.2353  58.8065 15.48166120  5858

JSON: /api/v1/satellites/55487 · /tle

For live sub-satellite position, see the globe view (requires WebGL).

§ Visibility from observer

Set your observer location to see the next 7 days of passes ≥ 10°. The values pass through the URL so the page stays shareable.

No JS? Fill the form by hand. The geolocation button needs JavaScript.